Weather observations for the past three days for
Downtown Holman Field
Imperial (Metric)
Date Time (cdt) Wind (mph) Vis. (mi.) Weather Sky Cond. Temperature (ºF) Relative Humidity Wind Chill (°F) Heat Index (°F) Pressure Precipitation (in)
Air Dwpt 6 hour altimeter (in) sea level (mb) 1 hr 3 hr 6 hr
Max. Min.
15 02:53 Calm 10.00 Fair CLR 71.1 69.1 94% 29.83 1009.5
15 01:53 Calm 10.00 Fair CLR 71.1 69.1 94% 29.84 1009.7
15 00:53 Calm 10.00 Fair CLR 72 69.1 88 72 91% 29.85 1010.2
14 23:53 Calm 10.00 Fair CLR 73.9 70 88% 29.85 1010.2
14 22:53 Calm 10.00 Fair CLR 75.9 70 82% 77 29.85 1010.1
14 21:53 Calm 10.00 Fair CLR 79 69.1 72% 82 29.84 1009.8
14 20:53 N 6 10.00 Fair CLR 82.9 66 57% 85 29.84 1009.8
14 19:53 N 8 10.00 Fair CLR 86 68 55% 89 29.85 1010.1
14 18:53 N 6 10.00 A Few Clouds FEW050 88 68 90 82.9 52% 92 29.85 1010.0
14 17:53 NE 6 10.00 A Few Clouds FEW050 89.1 69.1 52% 94 29.85 1010.2
14 16:53 Vrbl 6 10.00 Fair CLR 89.1 69.1 52% 94 29.85 1010.2
14 15:53 NW 6 10.00 Fair CLR 89.1 70 53% 94 29.86 1010.4
14 14:53 NW 5 10.00 Fair CLR 87.1 71.1 59% 93 29.85 1010.1
14 13:53 Calm 10.00 Fair CLR 84 72 67% 90 29.85 1010.3
14 12:53 Calm 10.00 A Few Clouds FEW022 82.9 71.1 84 69.1 67% 88 29.87 1010.7
14 11:53 Calm 10.00 A Few Clouds FEW022 82 71.1 69% 86 29.89 1011.3
14 10:53 SW 7 10.00 Mostly Cloudy BKN019 79 71.1 77% 82 29.89 1011.5
14 09:53 SW 7 10.00 Partly Cloudy SCT019 78.1 70 76% 80 29.9 1011.8
14 08:53 Calm 10.00 A Few Clouds FEW021 75 68 79% 76 29.91 1012.2
14 07:53 Calm 10.00 Fair CLR 72 64.9 79% 29.89 1011.6
14 06:53 Calm 10.00 Fair CLR 69.1 64.9 75 66.9 87% 29.88 1011.3 0.46
14 05:53 S 3 10.00 Partly Cloudy FEW014 SCT055 68 64.9 90% 29.9 1011.7
14 04:53 SE 7 10.00 Fair CLR 69.1 66 90% 29.89 1011.6
14 03:53 SE 7 10.00 Fair CLR 69.1 66 90% 29.86 1010.7 0.46
14 02:53 S 12 10.00 A Few Clouds FEW012 69.1 64.9 87% 29.84 1009.9
14 01:53 E 6 7.00 Thunderstorm Light Rain BKN031 BKN100 68 64.9 90% 29.86 1010.7 0.46
14 00:53 SW 3 10.00 Thunderstorm FEW039 SCT055 73 70 81 73 90% 29.89 1011.4 0.04
13 23:53 NE 6 9.00 Thunderstorm Light Rain SCT038 BKN065 OVC110 73 69.1 87% 29.9 1011.8 0.04
13 22:53 SE 7 10.00 Mostly Cloudy SCT047 BKN060 75 69.1 82% 75 29.91 1012.2
13 21:53 E 5 10.00 Fair CLR 75.9 71.1 85% 76 29.91 1012.3
13 20:53 SE 6 10.00 Fair CLR 77 72 85% 78 29.88 1011.2
13 19:53 SE 8 10.00 Fair CLR 80.1 72 76% 84 29.9 1011.8
13 18:53 E 3 10.00 Fair CLR 81 72 82.9 73 74% 85 29.89 1011.6 0.42
13 17:53 SE 9 10.00 Fair CLR 82 75 79% 89 29.92 1012.7
13 16:53 Calm 10.00 Fair CLR 82 73.9 77% 88 29.92 0.0
13 15:53 NE 5 10.00 Fair CLR 78.1 73 85% 81 29.96 1014.1 0.01 0.42
13 14:53 N 6 8.00 Light Rain SCT047 BKN060 OVC110 75 72 90% 74 29.97 1014.2 0.03
13 13:53 S 20 G 25 1.00 Thunderstorm Heavy Rain Fog/Mist BKN036 BKN050 OVC100 73.9 72 94% 29.98 1014.7 0.38
13 12:53 SE 12 10.00 Fair CLR 78.1 70 79 71.1 76% 80 29.97 1014.2 0.35
13 11:53 SE 10 10.00 Mostly Cloudy FEW080 BKN100 77 70 79% 79 29.97 1014.2
13 10:53 S 3 10.00 Partly Cloudy SCT110 73.9 69.1 85% 29.99 1015.0
13 09:53 SE 7 10.00 Partly Cloudy SCT110 73 68 84% 30.02 1016.0 0.35
13 08:53 NW 6 6.00 Thunderstorm Light Rain FEW020 BKN070 OVC110 71.1 66 84% 30.03 1016.3 0.35
13 07:53 S 6 10.00 Thunderstorm in Vicinity BKN048 75.9 69.1 79% 77 30.04 1016.4
13 06:53 SE 7 10.00 Mostly Cloudy BKN046 73 68 73.9 72 84% 30.03 1016.3
13 05:53 S 7 10.00 A Few Clouds FEW039 72 66.9 84% 30.02 1015.8
13 04:53 SE 8 10.00 Mostly Cloudy BKN036 BKN047 73 66.9 81% 30.02 1015.9
13 03:53 SE 7 10.00 Mostly Cloudy SCT040 BKN048 73 66.9 81% 30.03 1016.2
13 02:53 S 8 10.00 A Few Clouds FEW050 72 66.9 84% 30.02 1016.0
13 01:53 SE 8 10.00 Mostly Cloudy BKN050 73 66 79% 30.04 1016.4
13 00:53 SE 8 10.00 Partly Cloudy SCT050 73.9 66.9 84 73.9 79% 30.05 1016.7
12 23:53 S 7 10.00 Fair CLR 73.9 66.9 79% 30.04 1016.6
12 22:53 SE 8 10.00 Fair CLR 75.9 66.9 74% 77 30.04 1016.6
12 21:53 SE 8 10.00 Fair CLR 77 66 69% 79 30.04 1016.4
12 20:53 S 9 10.00 Fair CLR 79 64.9 62% 81 30.03 1016.0
12 19:53 S 8 10.00 A Few Clouds FEW055 82.9 64.9 55% 85 30.03 1016.2
12 18:53 S 9 10.00 Partly Cloudy SCT055 84 64 87.1 84 51% 85 30.02 1015.8
12 17:53 S 12 10.00 Fair CLR 86 64 48% 87 30.01 1015.7
12 16:53 SE 13 10.00 Fair CLR 86 63 46% 87 30.03 1016.0
12 15:53 SE 14 10.00 Fair CLR 86 63 46% 87 30.03 1016.1
12 14:53 S 14 G 22 10.00 Fair CLR 86 63 46% 87 30.04 1016.7
12 13:53 S 10 G 20 10.00 Fair CLR 84.9 62.1 46% 85 30.06 1017.1
12 12:53 SE 10 10.00 A Few Clouds FEW002 84 62.1 84.9 71.1 48% 85 30.07 1017.4
12 11:53 S 9 10.00 Fair CLR 82.9 64 53% 84 30.08 1017.9
12 10:53 S 14 G 20 10.00 Fair CLR 81 63 54% 82 30.09 1018.1
12 09:53 SW 12 10.00 Fair CLR 79 66 65% 81 30.09 1018.3
12 08:53 S 5 10.00 Fair CLR 78.1 66 67% 80 30.1 1018.4
12 07:53 SE 5 10.00 Fair CLR 73 66.9 81% 30.09 1018.2
12 06:53 SE 3 10.00 Fair CLR 71.1 66.9 72 68 87% 30.08 1017.9
12 05:53 Calm 10.00 Fair CLR 69.1 66 90% 30.06 1017.5
12 04:53 SE 3 10.00 Fair CLR 70 66 87% 30.05 1016.7
12 03:53 Calm 10.00 Fair CLR 71.1 66.9 87% 30.04 1016.6
Date Time (cdt) Wind (mph) Vis. (mi.) Weather Sky Cond. Air Dwpt Max. Min. Relative Humidity Wind Chill (°F) Heat Index (°F) altimeter (in) sea level (mb) 1 hr 3 hr 6 hr
6 hour
Temperature (ºF) Pressure Precipitation (in)